COSMOS 2526

Last updated on Wed Sep 17 2025 00:02:50 GMT+0000 (Coordinated Universal Time)

1 43432U 18037A 25258.96677769 -.00000363 00000+0 00000+0 0 9995 2 43432 0.0241 115.8854 0000343 176.4912 178.8989 1.00267793 27225
UTC large
Height (km)
Speed (km/s)
/
Latitude / Longitude
Inclination (degrees)
Orbital Period (minutes)
Azimuth
Elevation
Range (km)
Doppler Factor

Next 0 passes for location: London (51.5072 / 0.1276)

Sorry there are no passes over London.